Phoenix Deer Valley, AZ

12:14 AM MST on September 16, 2019 (GMT -0700)
Phoenix-Deer Valley Municipal

Weather History for KDVT - July, 2019

Change the Weather History Date:

Friday, July 19, 2019

  Actual Average Record
Temperature  
Mean Temperature 94 °F -  
Max Temperature 105 °F 101 °F 111 °F (2000)
Min Temperature 84 °F 81 °F 71 °F (2013)
Cooling Degree Days 30    
Growing Degree Days 44 (Base 50)    
Moisture  
Dew Point 43 °F    
Average Humidity 18    
Maximum Humidity 29    
Minimum Humidity 11    
Precipitation  
Precipitation 0.00 in - - ()
Sea Level Pressure  
Sea Level Pressure 29.73 in    
Wind  
Wind Speed 7 mph (SW)    
Max Wind Speed 16 mph    
Max Gust Speed 22 mph    
Visibility 10 miles    
Events      
Averages and records for this station are not official NWS values.
T = Trace of Precipitation, MM = Missing Value Source: NWS Daily Summary

Daily Weather History Graph

Daily Weather History Graph

Search for Another Location

Airport or City:

Astronomy

Jul. 19, 2019 Rise Set
Actual Time 5:31 AM MST 7:37 PM MST
Civil Twilight 5:03 AM MST 8:05 PM MST
Nautical Twilight 4:28 AM MST 8:39 PM MST
Astronomical Twilight 3:52 AM MST 9:16 PM MST
Moon 9:43 PM MST (7/19) 7:57 AM MST (7/19)
Length of Visible Light 15h 02m
Length of Day
14h 06m
Waning Gibbous, 92% of the Moon is Illuminated
Jul 19
Waning Gibbous
Jul 24
Last Quarter
Jul 31
New
Aug 7
First Quarter
Aug 15
Full

Hourly Weather History & Observations

Time (MST) Temp. Dew Point Humidity Pressure Visibility Wind Dir Wind Speed Gust Speed Precip Events Conditions
12:53 AM 91.0 °F 43.0 °F 19% 29.72 in 10.0 mi WSW 5.8 mph - N/A   Clear
1:53 AM 89.1 °F 46.9 °F 23% 29.72 in 10.0 mi SW 6.9 mph - N/A   Clear
2:53 AM 89.1 °F 48.9 °F 25% 29.72 in 10.0 mi WSW 6.9 mph - N/A   Clear
3:53 AM 86.0 °F 48.9 °F 28% 29.72 in 10.0 mi Calm Calm - N/A   Clear
4:53 AM 84.0 °F 48.0 °F 28% 29.74 in 10.0 mi ESE 4.6 mph - N/A   Clear
5:53 AM 84.9 °F 48.9 °F 29% 29.75 in 10.0 mi ESE 3.5 mph - N/A   Clear
6:53 AM 88.0 °F 48.9 °F 26% 29.76 in 10.0 mi Calm Calm - N/A   Clear
7:53 AM 91.0 °F 46.9 °F 22% 29.78 in 10.0 mi SSW 5.8 mph - N/A   Clear
8:53 AM 91.9 °F 46.0 °F 21% 29.79 in 10.0 mi SW 5.8 mph - N/A   Clear
9:53 AM 93.0 °F 43.0 °F 18% 29.79 in 10.0 mi SW 9.2 mph - N/A   Clear
10:53 AM 96.1 °F 43.0 °F 16% 29.79 in 10.0 mi SW 9.2 mph - N/A   Clear
11:53 AM 98.1 °F 43.0 °F 15% 29.78 in 10.0 mi SSW 8.1 mph - N/A   Clear
12:53 PM 100.0 °F 41.0 °F 13% 29.76 in 10.0 mi WSW 9.2 mph - N/A   Clear
1:53 PM 102.9 °F 41.0 °F 12% 29.73 in 10.0 mi SW 11.5 mph 19.6 mph N/A   Clear
2:53 PM 105.1 °F 39.9 °F 11% 29.71 in 10.0 mi West 15.0 mph 21.9 mph N/A   Clear
3:53 PM 104.0 °F 41.0 °F 12% 29.69 in 10.0 mi West 16.1 mph 20.7 mph N/A   Clear
4:53 PM 102.9 °F 39.0 °F 11% 29.68 in 10.0 mi WNW 6.9 mph - N/A   Clear
5:53 PM 102.0 °F 37.0 °F 11% 29.68 in 10.0 mi West 10.4 mph - N/A   Clear
6:53 PM 100.0 °F 37.0 °F 11% 29.67 in 10.0 mi SW 11.5 mph - N/A   Clear
7:53 PM 99.0 °F 37.9 °F 12% 29.67 in 10.0 mi SW 8.1 mph - N/A   Clear
8:53 PM 98.1 °F 39.9 °F 13% 29.68 in 10.0 mi SW 6.9 mph - N/A   Clear
9:53 PM 96.1 °F 39.0 °F 14% 29.70 in - North - - N/A   Unknown
10:53 PM - - N/A% 29.80 in - North - - N/A   Unknown
11:53 PM - - N/A% 29.81 in - North - - N/A   Unknown